Regional Weather Roundup
Issued by NWS

Home | Current Version | Previous Version | Graphics & Text | Print | Product List | Glossary On
Versions: 1 2 3 4 5 6 7 8 9 10 11 12 13 14 15 16 17 18 19 20 21 22 23 24 25 26 27 28 29 30 31 32 33 34 35 36 37 38 39 40 41 42 43 44 45 46 47 48 49 50
000
ASUS45 KSLC 260510
RWRUT

UTAH REGIONAL WEATHER ROUNDUP
NATIONAL WEATHER SERVICE SALT LAKE CITY UT
1100 PM MDT MON MAY 25 2015

UTZ001>011-023>025-260600-

NORTHERN UTAH

CITY           SKY/WX    TMP DP  RH WIND       PRES   REMARKS
BRIGHAM CITY   PTCLDY    55  48  77 NW3       29.97S
HILL AFB       NOT AVBL
LOGAN          CLEAR     50  48  93 CALM      29.98S
OGDEN          PTCLDY    55  48  77 S8        29.97R
PROVO AIRPORT  MOCLDY    57  46  67 NW6       29.99F
SALT LAKE CITY PTCLDY    62  45  53 CALM      29.97R
VERNAL         PTCLDY    49  45  86 CALM      30.03R
WENDOVER       CLOUDY    55  48  76 SW6       29.99R
HEBER CITY     MOCLDY    52  41  66 E3        30.04R
WEST JORDAN    CLEAR     55  46  71 SW6       30.00R

$$

UTZ012>022-026-027-260600-

SOUTHERN/CENTRAL UTAH

CITY           SKY/WX    TMP DP  RH WIND       PRES   REMARKS
BLANDING       CLEAR     49  46  90 NE6       30.16R
BRYCE CANYON   PTCLDY    44  36  73 W10       30.15R
CEDAR CITY     PTCLDY    54  42  64 MISG      30.03R
DELTA          CLOUDY    59  44  56 W15G28    30.02R
HANKSVILLE     CLOUDY    63  45  51 CALM      30.00S
MILFORD        RAIN      59  49  69 S12       29.99R
MOAB/CYNLANDS  CLEAR     59  42  53 SW5       29.97R
PRICE          PTCLDY    51  41  68 NE10      30.04R
ST GEORGE      MOCLDY    68  37  32 SE7       29.93R
KANAB          PTCLDY    54  46  76 CALM      30.06R

$$

REGIONAL REPORTS     COLORADO/ARIZONA

CITY           SKY/WX    TMP DP  RH WIND       PRES   REMARKS
CRAIG, CO      MOCLDY   N/A N/A N/A CALM      30.08R
GRAND JUNCTION PTCLDY    52  46  80 E5        30.01R
RIFLE          RAIN      49  47  93 E5        30.09R
MONTROSE       PTCLDY    50  42  74 SE7       30.09R
CORTEZ         CLEAR     47  44  90 NE7       30.10R
PAGE, AZ       PTCLDY    67  42  40 SW3       29.97R
GRAND CANYON   CLEAR     44  41  89 CALM      30.13R
KINGMAN        CLEAR     71  35  26 SW14      29.96R
FLAGSTAFF      PTCLDY    44  41  89 CALM      30.16S

$$

REGIONAL REPORTS    NEVADA/IDAHO/WYOMING

CITY           SKY/WX    TMP DP  RH WIND       PRES   REMARKS
LAS VEGAS, NV  PTCLDY    83  41  22 S7        29.79R
ELY            LGT RAIN  52  42  69 N12       30.06R
ELKO           PTCLDY    50  45  83 CALM      30.02R
POCATELLO, ID  PTCLDY    55  47  74 VRB6      29.96S
BURLEY         CLOUDY    54  46  74 S8        29.93R
EVANSTON, WY   PTCLDY    43  39  86 S5        30.09R
ROCK SPRINGS   CLEAR     44  41  89 S6        30.06S
KEMMERER       PTCLDY    41  37  87 CALM      30.09S

$$



USA.gov is the U.S. government's official web portal to all federal, state and local government web resources and services.